This demonstration page uses our WeatherBlox Daily Observations layout. Learn more.

Left ArrowRight Arrow

Hourly Observations for August 3, 2021

Temp ( °F °C ) Dew Point ( °F °C ) Humidity (%) Winds ( mph kmh ) Pressure ( in mb ) Visibility ( mi km ) Precip ( " mm )
12:59 am 00:59 Partly Cloudy 72 22.2 61 16.1 68 68 Calm 30.09 1019 8 13 0.00 0.00
1:59 am 01:59 Cloudy 71 21.7 64 17.8 79 79 Calm 30.07 1018 7 11 0.00 0.00
2:59 am 02:59 Clear 71 21.7 64 17.8 79 79 ESE 3 6 30.06 1018 7 11 0.00 0.00
3:59 am 03:59 Mostly Cloudy 75 23.9 65 18.3 71 71 E 7 11 30.06 1018 8 13 0.00 0.00
4:59 am 04:59 Cloudy 75 23.9 65 18.3 71 71 E 7 11 30.06 1018 8 13 0.00 0.00
5:59 am 05:59 Cloudy 76 24.4 64 17.8 67 67 ENE 10 17 30.06 1018 10 16 0.00 0.00
6:59 am 06:59 Cloudy 76 24.4 63 17.2 64 64 ENE 8 13 30.06 1018 10 16 0.00 0.00
7:59 am 07:59 Cloudy 76 24.4 63 17.2 64 64 ENE 14 22 30.07 1018 7 11 0.00 0.00
8:59 am 08:59 Cloudy 77 25 63 17.2 62 62 ENE 10 17 30.08 1019 10 16 0.00 0.00
9:59 am 09:59 Cloudy 76 24.4 64 17.8 67 67 NE 10 17 30.08 1019 7 11 0.00 0.00
10:59 am 10:59 Cloudy 77 25 63 17.2 62 62 ENE 10 17 30.08 1019 10 16 0.00 0.00
11:59 am 11:59 Mostly Cloudy 78 25.6 64 17.8 62 62 NE 12 19 30.07 1018 10 16 0.00 0.00
12:59 pm 12:59 Cloudy 78 25.6 65 18.3 64 64 ENE 12 19 30.06 1018 7 11 0.00 0.00
1:29 pm 13:29 Cloudy 77 25 66 18.9 69 69 E 10 17 30.06 1018 10 16 0.00 0.00
1:44 pm 13:44 Cloudy 77 25 66 18.9 69 69 ENE 13 20 30.06 1018 10 16 0.00 0.00
1:59 pm 13:59 Cloudy 76 24.4 65 18.3 69 69 ENE 8 13 30.06 1018 10 16 0.00 0.00
2:06 pm 14:06 Mostly Cloudy 76 24.4 65 18.3 69 69 ENE 13 20 30.06 1018 7 11 0.00 0.00
2:42 pm 14:42 Cloudy 76 24.4 65 18.3 69 69 ENE 13 20 30.06 1018 10 16 0.00 0.00
2:59 pm 14:59 Cloudy 76 24.4 66 18.9 72 72 ENE 13 20 30.06 1018 10 16 0.00 0.00
3:59 pm 15:59 Cloudy 76 24.4 67 19.4 74 74 ENE 12 19 30.06 1018 10 16 0.00 0.00
4:59 pm 16:59 Cloudy with Light Rain 74 23.3 68 20 82 82 ENE 8 13 30.06 1018 6 10 0.00 0.00
5:44 pm 17:44 Cloudy 74 23.3 67 19.4 79 79 ENE 6 9 30.07 1018 8 13 0.01 0.25
5:59 pm 17:59 Cloudy 73 22.8 67 19.4 81 81 E 7 11 30.06 1018 8 13 0.01 0.25
6:59 pm 18:59 Cloudy with Light Rain 73 22.8 66 18.9 79 79 E 8 13 30.06 1018 8 13 0.01 0.25
7:39 pm 19:39 Mostly Cloudy with Light Rain 72 22.2 67 19.4 84 84 ESE 6 9 30.07 1018 8 13 0.01 0.25
7:59 pm 19:59 Cloudy with Light Rain 71 21.7 66 18.9 84 84 ESE 7 11 30.06 1018 8 13 0.01 0.25
8:59 pm 20:59 Cloudy with Light Rain 70 21.1 65 18.3 84 84 ESE 5 7 30.06 1018 8 13 0.00 0.00
9:59 pm 21:59 Cloudy with Light Rain 71 21.7 66 18.9 84 84 ESE 5 7 30.07 1018 8 13 0.00 0.00
10:59 pm 22:59 Cloudy with Light Rain 71 21.7 66 18.9 84 84 E 5 7 30.07 1018 7 11 0.01 0.25
11:59 pm 23:59 Cloudy with Light Rain 71 21.7 66 18.9 84 84 E 7 11 30.06 1018 6 10 0.02 0.51

Powered by AerisWeather